Time,TemperatureF,DewpointF,PressureIn,WindDirection,WindDirectionDegrees,WindSpeedMPH,WindSpeedGustMPH,Humidity,HourlyPrecipIn,Conditions,Clouds,dailyrainin,SolarRadiationWatts/m^2,SoftwareType,DateUTC
2013-02-26 00:21:00,28.0,23.0,-100.00,South,175,2.0,7.0,81,0.00,,,0.28,0.000000,,2013-02-26 09:21:00,
2013-02-26 00:31:00,28.0,23.0,-100.00,South,175,2.0,7.0,81,0.00,,,0.28,0.000000,,2013-02-26 09:31:00,
2013-02-26 00:43:00,28.0,23.0,-100.00,South,175,2.0,7.0,81,0.00,,,0.28,0.000000,,2013-02-26 09:43:00,
2013-02-26 00:51:00,28.0,23.0,-100.00,South,175,2.0,7.0,81,0.00,,,0.28,0.000000,,2013-02-26 09:51:00,
2013-02-26 01:21:00,27.0,23.0,-100.00,ENE,71,3.0,5.0,84,0.00,,,0.28,0.000000,,2013-02-26 10:21:00,
2013-02-26 01:31:00,27.0,23.0,-100.00,ENE,71,3.0,5.0,84,0.00,,,0.28,0.000000,,2013-02-26 10:31:00,
2013-02-26 01:41:00,27.0,23.0,-100.00,ENE,71,3.0,5.0,84,0.00,,,0.28,0.000000,,2013-02-26 10:41:00,
2013-02-26 01:51:00,27.0,23.0,-100.00,ENE,71,3.0,5.0,84,0.00,,,0.28,0.000000,,2013-02-26 10:51:00,
2013-02-26 02:21:00,27.0,23.0,-100.00,ENE,78,3.0,7.0,84,0.00,,,0.28,0.000000,,2013-02-26 11:21:00,
2013-02-26 02:31:00,27.0,23.0,-100.00,ENE,78,3.0,7.0,84,0.00,,,0.28,0.000000,,2013-02-26 11:31:00,
2013-02-26 02:41:00,27.0,23.0,-100.00,ENE,78,3.0,7.0,84,0.00,,,0.28,0.000000,,2013-02-26 11:41:00,
2013-02-26 02:52:00,27.0,23.0,-100.00,ENE,78,3.0,7.0,84,0.00,,,0.28,0.000000,,2013-02-26 11:52:00,
2013-02-26 03:22:00,27.0,23.0,-100.00,NE,41,4.0,6.0,83,0.00,,,0.28,0.000000,,2013-02-26 12:22:00,
2013-02-26 03:32:00,27.0,23.0,-100.00,NE,41,4.0,6.0,83,0.00,,,0.28,0.000000,,2013-02-26 12:32:00,
2013-02-26 03:42:00,27.0,23.0,-100.00,NE,41,4.0,6.0,83,0.00,,,0.28,0.000000,,2013-02-26 12:42:00,
2013-02-26 03:52:00,27.0,23.0,-100.00,NE,41,4.0,6.0,83,0.00,,,0.28,0.000000,,2013-02-26 12:52:00,
2013-02-26 04:21:00,27.0,22.0,-100.00,ESE,102,3.0,6.0,82,0.00,,,0.28,0.000000,,2013-02-26 13:21:00,
2013-02-26 04:31:00,27.0,22.0,-100.00,ESE,102,3.0,6.0,82,0.00,,,0.28,0.000000,,2013-02-26 13:31:00,
2013-02-26 04:42:00,27.0,22.0,-100.00,ESE,102,3.0,6.0,82,0.00,,,0.28,0.000000,,2013-02-26 13:42:00,
2013-02-26 04:51:00,27.0,22.0,-100.00,ESE,102,3.0,6.0,82,0.00,,,0.28,0.000000,,2013-02-26 13:51:00,
2013-02-26 05:21:00,29.0,22.0,-100.00,NE,53,2.0,6.0,76,0.00,,,0.28,0.000000,,2013-02-26 14:21:00,
2013-02-26 05:31:00,29.0,22.0,-100.00,NE,53,2.0,6.0,76,0.00,,,0.28,0.000000,,2013-02-26 14:31:00,
2013-02-26 05:41:00,29.0,22.0,-100.00,NE,53,2.0,6.0,76,0.00,,,0.28,0.000000,,2013-02-26 14:41:00,
2013-02-26 05:52:00,29.0,22.0,-100.00,NE,53,2.0,6.0,76,0.00,,,0.28,0.000000,,2013-02-26 14:52:00,
2013-02-26 06:21:00,29.0,21.0,-100.00,SW,230,2.0,4.0,71,0.00,,,0.28,0.000000,,2013-02-26 15:21:00,
2013-02-26 06:32:00,29.0,21.0,-100.00,SW,230,2.0,4.0,71,0.00,,,0.28,0.000000,,2013-02-26 15:32:00,
2013-02-26 06:41:00,29.0,21.0,-100.00,SW,230,2.0,4.0,71,0.00,,,0.28,0.000000,,2013-02-26 15:41:00,
2013-02-26 06:51:00,29.0,21.0,-100.00,SW,230,2.0,4.0,71,0.00,,,0.28,0.000000,,2013-02-26 15:51:00,
2013-02-26 07:22:00,30.0,21.0,-100.00,NNW,340,1.0,4.0,69,0.00,,,0.28,0.000000,,2013-02-26 16:22:00,
2013-02-26 07:31:00,30.0,21.0,-100.00,NNW,340,1.0,4.0,69,0.00,,,0.28,0.000000,,2013-02-26 16:31:00,
2013-02-26 07:42:00,30.0,21.0,-100.00,NNW,340,1.0,4.0,69,0.00,,,0.28,0.000000,,2013-02-26 16:42:00,
2013-02-26 07:51:00,30.0,21.0,-100.00,NNW,340,1.0,4.0,69,0.00,,,0.28,0.000000,,2013-02-26 16:51:00,
2013-02-26 08:21:00,29.0,20.0,-100.00,NNW,337,2.0,5.0,70,0.00,,,0.28,0.000000,,2013-02-26 17:21:00,
2013-02-26 08:32:00,29.0,20.0,-100.00,NNW,337,2.0,5.0,70,0.00,,,0.28,0.000000,,2013-02-26 17:32:00,
2013-02-26 08:41:00,29.0,20.0,-100.00,NNW,337,2.0,5.0,70,0.00,,,0.28,0.000000,,2013-02-26 17:41:00,
2013-02-26 08:52:00,29.0,20.0,-100.00,NNW,337,2.0,5.0,70,0.00,,,0.28,0.000000,,2013-02-26 17:52:00,
2013-02-26 10:22:00,35.0,23.0,-100.00,ENE,63,1.0,4.0,60,-99.99,,,0.28,110.000000,,2013-02-26 19:22:00,
2013-02-26 10:31:00,35.0,23.0,-100.00,ENE,63,1.0,4.0,60,-99.99,,,0.28,110.000000,,2013-02-26 19:31:00,
2013-02-26 10:41:00,35.0,23.0,-100.00,ENE,63,1.0,4.0,60,-99.99,,,0.28,110.000000,,2013-02-26 19:41:00,
2013-02-26 10:51:00,35.0,23.0,-100.00,ENE,63,1.0,4.0,60,-99.99,,,0.28,110.000000,,2013-02-26 19:51:00,
2013-02-26 11:21:00,34.0,21.0,-100.00,NE,44,2.0,6.0,58,0.00,,,0.28,164.000000,,2013-02-26 20:21:00,
2013-02-26 11:31:00,34.0,21.0,-100.00,NE,44,2.0,6.0,58,0.00,,,0.28,164.000000,,2013-02-26 20:31:00,
2013-02-26 11:41:00,34.0,21.0,-100.00,NE,44,2.0,6.0,58,0.00,,,0.28,164.000000,,2013-02-26 20:41:00,
2013-02-26 11:51:00,34.0,21.0,-100.00,NE,44,2.0,6.0,58,0.00,,,0.28,164.000000,,2013-02-26 20:51:00,
2013-02-26 12:21:00,40.0,19.0,-100.00,North,2,4.0,6.0,43,0.00,,,0.19,382.000000,,2013-02-26 21:21:00,
2013-02-26 12:31:00,40.0,19.0,-100.00,North,2,4.0,6.0,43,0.00,,,0.19,382.000000,,2013-02-26 21:31:00,
2013-02-26 13:21:00,41.0,21.0,-100.00,NW,314,2.0,6.0,45,-99.99,,,0.04,302.000000,,2013-02-26 22:21:00,
2013-02-26 13:31:00,41.0,21.0,-100.00,NW,314,2.0,6.0,45,-99.99,,,0.04,302.000000,,2013-02-26 22:31:00,
2013-02-26 13:41:00,41.0,21.0,-100.00,NW,314,2.0,6.0,45,-99.99,,,0.04,302.000000,,2013-02-26 22:41:00,
2013-02-26 13:51:00,41.0,21.0,-100.00,NW,314,2.0,6.0,45,-99.99,,,0.04,302.000000,,2013-02-26 22:51:00,
2013-02-26 14:21:00,38.0,21.0,-100.00,North,351,3.0,7.0,50,0.00,,,0.00,245.000000,,2013-02-26 23:21:00,
2013-02-26 14:31:00,38.0,21.0,-100.00,North,351,3.0,7.0,50,0.00,,,0.00,245.000000,,2013-02-26 23:31:00,
2013-02-26 14:41:00,38.0,21.0,-100.00,North,351,3.0,7.0,50,0.00,,,0.00,245.000000,,2013-02-26 23:41:00,
2013-02-26 14:51:00,38.0,21.0,-100.00,North,351,3.0,7.0,50,0.00,,,0.00,245.000000,,2013-02-26 23:51:00,
2013-02-26 15:21:00,39.0,19.0,-100.00,WNW,282,3.0,6.0,45,0.00,,,0.00,257.000000,,2013-02-27 00:21:00,
2013-02-26 15:31:00,39.0,19.0,-100.00,WNW,282,3.0,6.0,45,0.00,,,0.00,257.000000,,2013-02-27 00:31:00,
2013-02-26 15:41:00,39.0,19.0,-100.00,WNW,282,3.0,6.0,45,0.00,,,0.00,257.000000,,2013-02-27 00:41:00,
2013-02-26 15:51:00,39.0,19.0,-100.00,WNW,282,3.0,6.0,45,0.00,,,0.00,257.000000,,2013-02-27 00:51:00,
2013-02-26 16:21:00,39.0,20.0,-100.00,NNW,328,3.0,6.0,47,0.00,,,0.00,236.000000,,2013-02-27 01:21:00,
2013-02-26 16:31:00,39.0,20.0,-100.00,NNW,328,3.0,6.0,47,0.00,,,0.00,236.000000,,2013-02-27 01:31:00,
2013-02-26 16:41:00,39.0,20.0,-100.00,NNW,328,3.0,6.0,47,0.00,,,0.00,236.000000,,2013-02-27 01:41:00,
2013-02-26 16:51:00,39.0,20.0,-100.00,NNW,328,3.0,6.0,47,0.00,,,0.00,236.000000,,2013-02-27 01:51:00,
2013-02-26 17:22:00,37.0,18.0,-100.00,WNW,303,3.0,6.0,46,0.00,,,0.00,185.000000,,2013-02-27 02:22:00,
2013-02-26 17:32:00,37.0,18.0,-100.00,WNW,303,3.0,6.0,46,0.00,,,0.00,185.000000,,2013-02-27 02:32:00,
2013-02-26 17:41:00,37.0,18.0,-100.00,WNW,303,3.0,6.0,46,0.00,,,0.00,185.000000,,2013-02-27 02:41:00,
2013-02-26 17:52:00,37.0,18.0,-100.00,WNW,303,3.0,6.0,46,0.00,,,0.00,185.000000,,2013-02-27 02:52:00,
2013-02-26 18:21:00,33.0,19.0,-100.00,NE,38,3.0,6.0,55,0.00,,,0.00,71.000000,,2013-02-27 03:21:00,
2013-02-26 18:32:00,33.0,19.0,-100.00,NE,38,3.0,6.0,55,0.00,,,0.00,71.000000,,2013-02-27 03:32:00,
2013-02-26 18:41:00,33.0,19.0,-100.00,NE,38,3.0,6.0,55,0.00,,,0.00,71.000000,,2013-02-27 03:41:00,
2013-02-26 18:51:00,33.0,19.0,-100.00,NE,38,3.0,6.0,55,0.00,,,0.00,71.000000,,2013-02-27 03:51:00,
2013-02-26 19:11:00,35.0,25.0,-100.00,ESE,116,5.0,12.0,66,0.00,,,0.00,4.000000,,2013-02-27 04:11:00,
2013-02-26 19:21:00,35.0,25.0,-100.00,ESE,116,5.0,12.0,66,0.00,,,0.00,4.000000,,2013-02-27 04:21:00,
2013-02-26 19:31:00,35.0,25.0,-100.00,ESE,116,5.0,12.0,66,0.00,,,0.00,4.000000,,2013-02-27 04:31:00,
2013-02-26 19:41:00,35.0,25.0,-100.00,ESE,116,5.0,12.0,66,0.00,,,0.00,4.000000,,2013-02-27 04:41:00,
2013-02-26 19:51:00,35.0,25.0,-100.00,ESE,116,5.0,12.0,66,0.00,,,0.00,4.000000,,2013-02-27 04:51:00,
2013-02-26 20:22:00,32.0,20.0,-100.00,SSE,150,6.0,12.0,61,0.00,,,0.00,0.000000,,2013-02-27 05:22:00,
2013-02-26 20:32:00,32.0,20.0,-100.00,SSE,150,6.0,12.0,61,0.00,,,0.00,0.000000,,2013-02-27 05:32:00,
2013-02-26 20:41:00,32.0,20.0,-100.00,SSE,150,6.0,12.0,61,0.00,,,0.00,0.000000,,2013-02-27 05:41:00,
2013-02-26 20:52:00,32.0,20.0,-100.00,SSE,150,6.0,12.0,61,0.00,,,0.00,0.000000,,2013-02-27 05:52:00,
2013-02-26 21:21:00,35.0,16.0,-100.00,SSE,167,9.0,21.0,45,0.00,,,0.00,0.000000,,2013-02-27 06:21:00,
2013-02-26 21:32:00,35.0,16.0,-100.00,SSE,167,9.0,21.0,45,0.00,,,0.00,0.000000,,2013-02-27 06:32:00,
2013-02-26 21:41:00,35.0,16.0,-100.00,SSE,167,9.0,21.0,45,0.00,,,0.00,0.000000,,2013-02-27 06:41:00,
2013-02-26 21:51:00,35.0,16.0,-100.00,SSE,167,9.0,21.0,45,0.00,,,0.00,0.000000,,2013-02-27 06:51:00,
2013-02-26 22:21:00,29.0,17.0,-100.00,SE,130,4.0,16.0,61,0.00,,,0.00,0.000000,,2013-02-27 07:21:00,
2013-02-26 22:31:00,29.0,17.0,-100.00,SE,130,4.0,16.0,61,0.00,,,0.00,0.000000,,2013-02-27 07:31:00,
2013-02-26 22:41:00,29.0,17.0,-100.00,SE,130,4.0,16.0,61,0.00,,,0.00,0.000000,,2013-02-27 07:41:00,
2013-02-26 22:51:00,29.0,17.0,-100.00,SE,130,4.0,16.0,61,0.00,,,0.00,0.000000,,2013-02-27 07:51:00,
2013-02-26 23:21:00,28.0,18.0,-100.00,ENE,67,6.0,20.0,67,0.00,,,0.00,0.000000,,2013-02-27 08:21:00,
2013-02-26 23:31:00,28.0,18.0,-100.00,ENE,67,6.0,20.0,67,0.00,,,0.00,0.000000,,2013-02-27 08:31:00,
2013-02-26 23:41:00,28.0,18.0,-100.00,ENE,67,6.0,20.0,67,0.00,,,0.00,0.000000,,2013-02-27 08:41:00,
2013-02-26 23:52:00,28.0,18.0,-100.00,ENE,67,6.0,20.0,67,0.00,,,0.00,0.000000,,2013-02-27 08:52:00,